Time,TemperatureF,DewpointF,PressureIn,WindDirection,WindDirectionDegrees,WindSpeedMPH,WindSpeedGustMPH,Humidity,HourlyPrecipIn,Conditions,Clouds,dailyrainin,SoftwareType,DateUTC
2013-05-03 00:00:00,61.3,37.4,30.07,NE,46,0.0,1.0,41,0.00,,,0.00,Wunderground v.1.15,2013-05-03 07:00:00,
2013-05-03 00:05:00,61.2,37.3,30.07,NE,46,0.0,1.0,41,0.00,,,0.00,Wunderground v.1.15,2013-05-03 07:05:00,
2013-05-03 00:15:00,61.0,37.1,30.07,NE,46,0.0,2.0,41,0.00,,,0.00,Wunderground v.1.15,2013-05-03 07:15:00,
2013-05-03 00:25:00,60.9,37.0,30.07,NE,46,0.0,1.0,41,0.00,,,0.00,Wunderground v.1.15,2013-05-03 07:25:00,
2013-05-03 00:35:00,60.9,37.0,30.07,ENE,60,0.0,0.0,41,0.00,,,0.00,Wunderground v.1.15,2013-05-03 07:35:00,
2013-05-03 00:45:00,60.9,37.0,30.07,ENE,59,0.0,1.0,41,0.00,,,0.00,Wunderground v.1.15,2013-05-03 07:45:00,
2013-05-03 00:55:00,60.9,37.0,30.07,ENE,59,0.0,1.0,41,0.00,,,0.00,Wunderground v.1.15,2013-05-03 07:55:00,
2013-05-03 01:05:00,60.5,36.7,30.06,ENE,59,0.0,1.0,41,0.00,,,0.00,Wunderground v.1.15,2013-05-03 08:05:00,
2013-05-03 01:15:00,60.0,35.6,30.06,ENE,59,0.0,1.0,40,0.00,,,0.00,Wunderground v.1.15,2013-05-03 08:15:00,
2013-05-03 01:25:00,59.6,34.6,30.06,ENE,59,0.0,1.0,39,0.00,,,0.00,Wunderground v.1.15,2013-05-03 08:25:00,
2013-05-03 01:35:00,59.3,33.0,30.05,ENE,59,0.0,1.0,37,0.00,,,0.00,Wunderground v.1.15,2013-05-03 08:35:00,
2013-05-03 01:45:00,59.3,33.7,30.05,ENE,59,0.0,1.0,38,0.00,,,0.00,Wunderground v.1.15,2013-05-03 08:45:00,
2013-05-03 01:55:00,59.2,32.9,30.05,ENE,59,0.0,1.0,37,0.00,,,0.00,Wunderground v.1.15,2013-05-03 08:55:00,
2013-05-03 02:05:00,59.2,32.2,30.04,ENE,59,0.0,1.0,36,0.00,,,0.00,Wunderground v.1.15,2013-05-03 09:05:00,
2013-05-03 02:15:00,59.0,32.7,30.04,ENE,59,1.0,1.0,37,0.00,,,0.00,Wunderground v.1.15,2013-05-03 09:15:00,
2013-05-03 02:25:00,58.8,31.9,30.04,ENE,59,0.0,1.0,36,0.00,,,0.00,Wunderground v.1.15,2013-05-03 09:25:00,
2013-05-03 02:35:00,59.0,31.4,30.03,ENE,57,1.0,1.0,35,0.00,,,0.00,Wunderground v.1.15,2013-05-03 09:35:00,
2013-05-03 02:45:00,59.5,31.8,30.03,NE,55,0.0,1.0,35,0.00,,,0.00,Wunderground v.1.15,2013-05-03 09:45:00,
2013-05-03 02:55:00,59.8,32.1,30.03,NE,54,0.0,1.0,35,0.00,,,0.00,Wunderground v.1.15,2013-05-03 09:55:00,
2013-05-03 03:05:00,59.7,32.7,30.02,NE,54,0.0,1.0,36,0.00,,,0.00,Wunderground v.1.15,2013-05-03 10:05:00,
2013-05-03 03:15:00,59.2,32.9,30.02,NE,54,0.0,1.0,37,0.00,,,0.00,Wunderground v.1.15,2013-05-03 10:15:00,
2013-05-03 03:25:00,58.9,32.7,30.02,NE,54,0.0,1.0,37,0.00,,,0.00,Wunderground v.1.15,2013-05-03 10:25:00,
2013-05-03 03:35:00,58.7,31.8,30.02,NE,54,1.0,1.0,36,0.00,,,0.00,Wunderground v.1.15,2013-05-03 10:35:00,
2013-05-03 03:45:00,58.6,32.4,30.02,NE,54,0.0,1.0,37,0.00,,,0.00,Wunderground v.1.15,2013-05-03 10:45:00,
2013-05-03 03:55:00,58.4,32.2,30.02,NE,54,0.0,1.0,37,0.00,,,0.00,Wunderground v.1.15,2013-05-03 10:55:00,
2013-05-03 04:05:00,58.1,31.9,30.01,NE,54,0.0,1.0,37,0.00,,,0.00,Wunderground v.1.15,2013-05-03 11:05:00,
2013-05-03 04:15:00,58.0,31.8,30.01,NE,54,0.0,1.0,37,0.00,,,0.00,Wunderground v.1.15,2013-05-03 11:15:00,
2013-05-03 04:25:00,58.0,30.5,30.01,NE,54,0.0,1.0,35,0.00,,,0.00,Wunderground v.1.15,2013-05-03 11:25:00,
2013-05-03 04:35:00,58.1,30.6,30.01,NE,54,0.0,1.0,35,0.00,,,0.00,Wunderground v.1.15,2013-05-03 11:35:00,
2013-05-03 04:45:00,58.3,31.4,30.01,NE,54,1.0,1.0,36,0.00,,,0.00,Wunderground v.1.15,2013-05-03 11:45:00,
2013-05-03 04:55:00,58.4,31.5,30.01,NE,54,0.0,1.0,36,0.00,,,0.00,Wunderground v.1.15,2013-05-03 11:55:00,
2013-05-03 05:05:00,58.2,31.3,30.01,NE,54,1.0,1.0,36,0.00,,,0.00,Wunderground v.1.15,2013-05-03 12:05:00,
2013-05-03 05:15:00,57.9,31.8,30.00,NE,54,1.0,1.0,37,0.00,,,0.00,Wunderground v.1.15,2013-05-03 12:15:00,
2013-05-03 05:25:00,57.6,30.1,30.00,NE,54,0.0,1.0,35,0.00,,,0.00,Wunderground v.1.15,2013-05-03 12:25:00,
2013-05-03 05:30:00,57.5,30.7,30.00,NE,54,0.0,2.0,36,0.00,,,0.00,Wunderground v.1.15,2013-05-03 12:30:00,
2013-05-03 05:40:00,57.8,29.6,29.99,NE,46,1.0,1.0,34,0.00,,,0.00,Wunderground v.1.15,2013-05-03 12:40:00,
2013-05-03 05:50:00,58.9,28.3,29.99,NE,46,1.0,2.0,31,0.00,,,0.00,Wunderground v.1.15,2013-05-03 12:50:00,
2013-05-03 06:00:00,59.5,28.0,29.99,NE,46,1.0,1.0,30,0.00,,,0.00,Wunderground v.1.15,2013-05-03 13:00:00,
2013-05-03 06:05:00,59.6,28.9,29.99,NE,46,1.0,1.0,31,0.00,,,0.00,Wunderground v.1.15,2013-05-03 13:05:00,
2013-05-03 06:15:00,59.4,28.7,29.99,NE,46,0.0,1.0,31,0.00,,,0.00,Wunderground v.1.15,2013-05-03 13:15:00,
2013-05-03 06:25:00,59.1,30.0,30.00,NE,46,0.0,1.0,33,0.00,,,0.00,Wunderground v.1.15,2013-05-03 13:25:00,
2013-05-03 06:35:00,58.8,29.7,29.99,NE,46,0.0,1.0,33,0.00,,,0.00,Wunderground v.1.15,2013-05-03 13:35:00,
2013-05-03 06:45:00,58.4,30.1,30.00,NE,46,0.0,1.0,34,0.00,,,0.00,Wunderground v.1.15,2013-05-03 13:45:00,
2013-05-03 06:55:00,58.1,31.3,30.00,NE,46,0.0,1.0,36,0.00,,,0.00,Wunderground v.1.15,2013-05-03 13:55:00,
2013-05-03 07:05:00,57.9,32.4,30.00,NE,46,0.0,1.0,38,0.00,,,0.00,Wunderground v.1.15,2013-05-03 14:05:00,
2013-05-03 07:15:00,57.9,33.7,29.99,NE,46,0.0,1.0,40,0.00,,,0.00,Wunderground v.1.15,2013-05-03 14:15:00,
2013-05-03 07:25:00,58.1,34.5,29.99,NE,46,0.0,1.0,41,0.00,,,0.00,Wunderground v.1.15,2013-05-03 14:25:00,
2013-05-03 07:35:00,58.5,35.5,29.99,NE,46,0.0,1.0,42,0.00,,,0.00,Wunderground v.1.15,2013-05-03 14:35:00,
2013-05-03 07:45:00,59.2,35.5,29.99,NE,46,0.0,1.0,41,0.00,,,0.00,Wunderground v.1.15,2013-05-03 14:45:00,
2013-05-03 07:55:00,60.5,35.4,29.98,NE,46,0.0,1.0,39,0.00,,,0.00,Wunderground v.1.15,2013-05-03 14:55:00,
2013-05-03 08:00:00,61.1,35.3,29.98,NE,46,0.0,1.0,38,0.00,,,0.00,Wunderground v.1.15,2013-05-03 15:00:00,
2013-05-03 08:10:00,62.6,37.3,29.98,NE,46,0.0,1.0,39,0.00,,,0.00,Wunderground v.1.15,2013-05-03 15:10:00,
2013-05-03 08:20:00,64.8,36.5,29.98,ENE,63,0.0,0.0,35,0.00,,,0.00,Wunderground v.1.15,2013-05-03 15:20:00,
2013-05-03 08:30:00,67.0,41.2,29.98,South,191,1.0,1.0,39,0.00,,,0.00,Wunderground v.1.15,2013-05-03 15:30:00,
2013-05-03 08:40:00,68.2,38.7,29.98,South,190,0.0,0.0,34,0.00,,,0.00,Wunderground v.1.15,2013-05-03 15:40:00,
2013-05-03 08:45:00,68.9,37.0,29.98,South,190,0.0,0.0,31,0.00,,,0.00,Wunderground v.1.15,2013-05-03 15:45:00,
2013-05-03 08:50:00,69.8,35.2,29.97,South,190,0.0,0.0,28,0.00,,,0.00,Wunderground v.1.15,2013-05-03 15:50:00,
2013-05-03 09:00:00,71.4,38.3,29.97,South,190,0.0,0.0,30,0.00,,,0.00,Wunderground v.1.15,2013-05-03 16:00:00,
2013-05-03 09:10:00,72.6,37.6,29.97,SW,214,2.0,2.0,28,0.00,,,0.00,Wunderground v.1.15,2013-05-03 16:10:00,
2013-05-03 09:20:00,73.4,38.3,29.97,SSW,198,1.0,2.0,28,0.00,,,0.00,Wunderground v.1.15,2013-05-03 16:20:00,
2013-05-03 09:30:00,74.2,39.0,29.96,SW,220,2.0,2.0,28,0.00,,,0.00,Wunderground v.1.15,2013-05-03 16:30:00,
2013-05-03 09:40:00,74.2,39.0,29.96,WSW,238,3.0,4.0,28,0.00,,,0.00,Wunderground v.1.15,2013-05-03 16:40:00,
2013-05-03 09:50:00,74.8,38.6,29.96,SW,229,3.0,3.0,27,0.00,,,0.00,Wunderground v.1.15,2013-05-03 16:50:00,
2013-05-03 10:00:00,74.9,38.7,29.96,SW,219,3.0,3.0,27,0.00,,,0.00,Wunderground v.1.15,2013-05-03 17:00:00,
2013-05-03 10:05:00,75.3,39.0,29.96,SSW,208,3.0,3.0,27,0.00,,,0.00,Wunderground v.1.15,2013-05-03 17:05:00,
2013-05-03 10:15:00,76.3,38.9,29.96,WSW,237,3.0,4.0,26,0.00,,,0.00,Wunderground v.1.15,2013-05-03 17:15:00,
2013-05-03 10:25:00,77.1,37.5,29.95,WSW,251,3.0,4.0,24,0.00,,,0.00,Wunderground v.1.15,2013-05-03 17:25:00,
2013-05-03 10:35:00,78.1,36.1,29.95,SW,216,3.0,5.0,22,0.00,,,0.00,Wunderground v.1.15,2013-05-03 17:35:00,
2013-05-03 10:45:00,78.2,35.0,29.95,WSW,254,3.0,4.0,21,0.00,,,0.00,Wunderground v.1.15,2013-05-03 17:45:00,
2013-05-03 10:55:00,78.5,34.1,29.95,West,262,3.0,4.0,20,0.00,,,0.00,Wunderground v.1.15,2013-05-03 17:55:00,
2013-05-03 11:05:00,79.4,37.2,29.95,SW,229,3.0,5.0,22,0.00,,,0.00,Wunderground v.1.15,2013-05-03 18:05:00,
2013-05-03 11:10:00,80.0,38.9,29.95,West,271,3.0,6.0,23,0.00,,,0.00,Wunderground v.1.15,2013-05-03 18:10:00,
2013-05-03 11:20:00,80.0,41.0,29.95,SW,214,4.0,4.0,25,0.00,,,0.00,Wunderground v.1.15,2013-05-03 18:20:00,
2013-05-03 11:30:00,80.2,41.2,29.95,SW,217,4.0,4.0,25,0.00,,,0.00,Wunderground v.1.15,2013-05-03 18:30:00,
2013-05-03 11:40:00,79.9,41.9,29.94,SSW,204,4.0,5.0,26,0.00,,,0.00,Wunderground v.1.15,2013-05-03 18:40:00,
2013-05-03 11:45:00,80.2,40.1,29.94,SW,236,4.0,5.0,24,0.00,,,0.00,Wunderground v.1.15,2013-05-03 18:45:00,
2013-05-03 11:50:00,81.0,41.9,29.94,WSW,245,4.0,4.0,25,0.00,,,0.00,Wunderground v.1.15,2013-05-03 18:50:00,
2013-05-03 11:55:00,81.5,41.2,29.94,West,271,3.0,4.0,24,0.00,,,0.00,Wunderground v.1.15,2013-05-03 18:55:00,
2013-05-03 12:05:00,81.6,40.2,29.93,West,267,4.0,5.0,23,0.00,,,0.00,Wunderground v.1.15,2013-05-03 19:05:00,
2013-05-03 12:15:00,82.5,41.0,29.93,SW,226,4.0,5.0,23,0.00,,,0.00,Wunderground v.1.15,2013-05-03 19:15:00,
2013-05-03 12:25:00,83.4,40.6,29.93,WSW,238,4.0,6.0,22,0.00,,,0.00,Wunderground v.1.15,2013-05-03 19:25:00,
2013-05-03 12:30:00,84.1,39.9,29.92,WSW,248,3.0,3.0,21,0.00,,,0.00,Wunderground v.1.15,2013-05-03 19:30:00,
2013-05-03 12:40:00,84.8,36.6,29.92,WSW,245,4.0,5.0,18,0.00,,,0.00,Wunderground v.1.15,2013-05-03 19:40:00,
2013-05-03 12:50:00,84.2,36.1,29.92,WSW,238,4.0,5.0,18,0.00,,,0.00,Wunderground v.1.15,2013-05-03 19:50:00,
2013-05-03 13:00:00,84.4,34.8,29.91,South,174,5.0,6.0,17,0.00,,,0.00,Wunderground v.1.15,2013-05-03 20:00:00,
2013-05-03 13:10:00,84.9,33.7,29.91,South,179,4.0,4.0,16,0.00,,,0.00,Wunderground v.1.15,2013-05-03 20:10:00,
2013-05-03 13:15:00,85.0,32.2,29.91,SSW,195,4.0,9.0,15,0.00,,,0.00,Wunderground v.1.15,2013-05-03 20:15:00,
2013-05-03 13:25:00,84.8,35.1,29.90,SSW,195,5.0,7.0,17,0.00,,,0.00,Wunderground v.1.15,2013-05-03 20:25:00,
2013-05-03 13:35:00,85.3,35.5,29.90,WSW,243,5.0,7.0,17,0.00,,,0.00,Wunderground v.1.15,2013-05-03 20:35:00,
2013-05-03 13:45:00,85.1,33.8,29.90,WSW,238,6.0,6.0,16,0.00,,,0.00,Wunderground v.1.15,2013-05-03 20:45:00,
2013-05-03 13:55:00,85.8,32.8,29.89,SSW,204,6.0,9.0,15,0.00,,,0.00,Wunderground v.1.15,2013-05-03 20:55:00,
2013-05-03 14:05:00,86.0,34.6,29.89,WSW,241,6.0,8.0,16,0.00,,,0.00,Wunderground v.1.15,2013-05-03 21:05:00,
2013-05-03 14:15:00,86.3,36.3,29.89,West,265,6.0,9.0,17,0.00,,,0.00,Wunderground v.1.15,2013-05-03 21:15:00,
2013-05-03 14:25:00,86.0,34.6,29.88,WSW,238,7.0,9.0,16,0.00,,,0.00,Wunderground v.1.15,2013-05-03 21:25:00,
2013-05-03 14:35:00,86.1,33.0,29.87,SSW,196,7.0,11.0,15,0.00,,,0.00,Wunderground v.1.15,2013-05-03 21:35:00,
2013-05-03 14:45:00,86.0,33.0,29.87,SSW,205,8.0,8.0,15,0.00,,,0.00,Wunderground v.1.15,2013-05-03 21:45:00,
2013-05-03 14:55:00,86.4,33.3,29.87,SW,224,7.0,10.0,15,0.00,,,0.00,Wunderground v.1.15,2013-05-03 21:55:00,
2013-05-03 15:05:00,86.9,33.7,29.86,SSW,202,7.0,8.0,15,0.00,,,0.00,Wunderground v.1.15,2013-05-03 22:05:00,
2013-05-03 15:10:00,87.2,33.9,29.86,SW,217,7.0,8.0,15,0.00,,,0.00,Wunderground v.1.15,2013-05-03 22:10:00,
2013-05-03 15:20:00,87.4,35.7,29.85,SW,228,7.0,7.0,16,0.00,,,0.00,Wunderground v.1.15,2013-05-03 22:20:00,
2013-05-03 15:30:00,86.8,35.2,29.85,SW,222,7.0,7.0,16,0.00,,,0.00,Wunderground v.1.15,2013-05-03 22:30:00,
2013-05-03 15:40:00,86.7,36.7,29.84,SW,227,8.0,8.0,17,0.00,,,0.00,Wunderground v.1.15,2013-05-03 22:40:00,
2013-05-03 15:45:00,86.6,36.6,29.84,SSW,203,7.0,11.0,17,0.00,,,0.00,Wunderground v.1.15,2013-05-03 22:45:00,
2013-05-03 15:55:00,86.1,37.6,29.84,West,274,8.0,8.0,18,0.00,,,0.00,Wunderground v.1.15,2013-05-03 22:55:00,
2013-05-03 16:05:00,86.3,37.8,29.83,West,271,8.0,8.0,18,0.00,,,0.00,Wunderground v.1.15,2013-05-03 23:05:00,
2013-05-03 16:15:00,85.8,37.4,29.83,WSW,248,8.0,8.0,18,0.00,,,0.00,Wunderground v.1.15,2013-05-03 23:15:00,
2013-05-03 16:25:00,85.2,38.3,29.83,SW,235,9.0,10.0,19,0.00,,,0.00,Wunderground v.1.15,2013-05-03 23:25:00,
2013-05-03 16:30:00,85.1,36.8,29.83,SSW,200,8.0,10.0,18,0.00,,,0.00,Wunderground v.1.15,2013-05-03 23:30:00,
2013-05-03 16:40:00,84.1,36.0,29.83,SW,220,9.0,9.0,18,0.00,,,0.00,Wunderground v.1.15,2013-05-03 23:40:00,
2013-05-03 16:50:00,83.6,35.6,29.83,WSW,241,8.0,12.0,18,0.00,,,0.00,Wunderground v.1.15,2013-05-03 23:50:00,
2013-05-03 17:00:00,83.0,35.1,29.83,South,189,9.0,14.0,18,0.00,,,0.00,Wunderground v.1.15,2013-05-04 00:00:00,
2013-05-03 17:10:00,82.9,33.6,29.83,SW,231,7.0,14.0,17,0.00,,,0.00,Wunderground v.1.15,2013-05-04 00:10:00,
2013-05-03 17:15:00,82.0,31.4,29.83,SW,219,9.0,14.0,16,0.00,,,0.00,Wunderground v.1.15,2013-05-04 00:15:00,
2013-05-03 17:20:00,82.0,32.9,29.83,WSW,257,9.0,9.0,17,0.00,,,0.00,Wunderground v.1.15,2013-05-04 00:20:00,
2013-05-03 17:30:00,83.0,30.6,29.83,SW,217,6.0,6.0,15,0.00,,,0.00,Wunderground v.1.15,2013-05-04 00:30:00,
2013-05-03 17:40:00,82.2,29.9,29.83,WNW,300,6.0,6.0,15,0.00,,,0.00,Wunderground v.1.15,2013-05-04 00:40:00,
2013-05-03 17:50:00,82.0,31.4,29.82,SW,228,5.0,14.0,16,0.00,,,0.00,Wunderground v.1.15,2013-05-04 00:50:00,
2013-05-03 17:55:00,81.6,29.4,29.82,SSW,206,6.0,14.0,15,0.00,,,0.00,Wunderground v.1.15,2013-05-04 00:55:00,
2013-05-03 18:05:00,80.3,32.9,29.82,SW,228,8.0,8.0,18,0.00,,,0.00,Wunderground v.1.15,2013-05-04 01:05:00,
2013-05-03 18:15:00,79.4,34.8,29.82,WSW,239,7.0,14.0,20,0.00,,,0.00,Wunderground v.1.15,2013-05-04 01:15:00,
2013-05-03 18:25:00,79.2,37.1,29.81,SSW,207,5.0,14.0,22,0.00,,,0.00,Wunderground v.1.15,2013-05-04 01:25:00,
2013-05-03 18:35:00,78.8,37.9,29.81,WSW,244,5.0,14.0,23,0.00,,,0.00,Wunderground v.1.15,2013-05-04 01:35:00,
2013-05-03 18:45:00,78.2,38.4,29.80,WSW,240,4.0,14.0,24,0.00,,,0.00,Wunderground v.1.15,2013-05-04 01:45:00,
2013-05-03 18:55:00,77.2,39.6,29.80,SW,232,3.0,14.0,26,0.00,,,0.00,Wunderground v.1.15,2013-05-04 01:55:00,
2013-05-03 19:05:00,76.2,40.7,29.80,SW,226,3.0,3.0,28,0.00,,,0.00,Wunderground v.1.15,2013-05-04 02:05:00,
2013-05-03 19:15:00,75.6,40.2,29.80,WSW,250,2.0,3.0,28,0.00,,,0.00,Wunderground v.1.15,2013-05-04 02:15:00,
2013-05-03 19:25:00,75.4,38.1,29.80,NW,309,1.0,6.0,26,0.00,,,0.00,Wunderground v.1.15,2013-05-04 02:25:00,
2013-05-03 19:35:00,75.2,35.9,29.80,NW,311,4.0,5.0,24,0.00,,,0.00,Wunderground v.1.15,2013-05-04 02:35:00,
2013-05-03 19:45:00,74.5,37.3,29.80,NW,309,1.0,3.0,26,0.00,,,0.00,Wunderground v.1.15,2013-05-04 02:45:00,
2013-05-03 19:55:00,73.7,35.7,29.80,NW,313,1.0,1.0,25,0.00,,,0.00,Wunderground v.1.15,2013-05-04 02:55:00,
2013-05-03 20:05:00,73.0,36.1,29.80,NW,323,0.0,5.0,26,0.00,,,0.00,Wunderground v.1.15,2013-05-04 03:05:00,
2013-05-03 20:15:00,72.2,34.4,29.80,NW,306,1.0,5.0,25,0.00,,,0.00,Wunderground v.1.15,2013-05-04 03:15:00,
2013-05-03 20:25:00,71.3,32.6,29.80,NW,304,1.0,5.0,24,0.00,,,0.00,Wunderground v.1.15,2013-05-04 03:25:00,
2013-05-03 20:35:00,70.6,33.0,29.80,NW,307,0.0,5.0,25,0.00,,,0.00,Wunderground v.1.15,2013-05-04 03:35:00,
2013-05-03 20:45:00,69.9,34.4,29.80,NNW,336,0.0,5.0,27,0.00,,,0.00,Wunderground v.1.15,2013-05-04 03:45:00,
2013-05-03 20:55:00,69.0,34.5,29.80,NNW,336,0.0,5.0,28,0.00,,,0.00,Wunderground v.1.15,2013-05-04 03:55:00,
2013-05-03 21:05:00,68.0,35.4,29.81,NNW,336,0.0,5.0,30,0.00,,,0.00,Wunderground v.1.15,2013-05-04 04:05:00,
2013-05-03 21:10:00,67.6,35.0,29.81,NNW,336,0.0,5.0,30,0.00,,,0.00,Wunderground v.1.15,2013-05-04 04:10:00,
2013-05-03 21:15:00,67.1,34.6,29.81,East,89,0.0,5.0,30,0.00,,,0.00,Wunderground v.1.15,2013-05-04 04:15:00,
2013-05-03 21:20:00,66.7,34.3,29.81,East,89,0.0,5.0,30,0.00,,,0.00,Wunderground v.1.15,2013-05-04 04:20:00,
2013-05-03 21:25:00,66.2,33.8,29.81,East,89,0.0,5.0,30,0.00,,,0.00,Wunderground v.1.15,2013-05-04 04:25:00,
2013-05-03 21:35:00,65.5,34.8,29.81,East,89,0.0,5.0,32,0.00,,,0.00,Wunderground v.1.15,2013-05-04 04:35:00,
2013-05-03 21:45:00,64.8,34.2,29.81,ENE,57,0.0,5.0,32,0.00,,,0.00,Wunderground v.1.15,2013-05-04 04:45:00,
2013-05-03 21:55:00,64.2,36.0,29.81,ENE,57,0.0,5.0,35,0.00,,,0.00,Wunderground v.1.15,2013-05-04 04:55:00,
2013-05-03 22:05:00,64.1,38.6,29.81,ENE,73,0.0,5.0,39,0.00,,,0.00,Wunderground v.1.15,2013-05-04 05:05:00,
2013-05-03 22:15:00,64.1,41.1,29.81,East,79,1.0,1.0,43,0.00,,,0.00,Wunderground v.1.15,2013-05-04 05:15:00,
2013-05-03 22:20:00,64.0,41.0,29.81,East,79,0.0,0.0,43,0.00,,,0.00,Wunderground v.1.15,2013-05-04 05:20:00,
2013-05-03 22:30:00,63.7,40.2,29.81,East,82,0.0,0.0,42,0.00,,,0.00,Wunderground v.1.15,2013-05-04 05:30:00,
2013-05-03 22:40:00,63.3,40.4,29.81,ENE,58,0.0,0.0,43,0.00,,,0.00,Wunderground v.1.15,2013-05-04 05:40:00,
2013-05-03 22:50:00,63.1,39.6,29.80,NE,51,0.0,0.0,42,0.00,,,0.00,Wunderground v.1.15,2013-05-04 05:50:00,
2013-05-03 23:00:00,63.2,39.1,29.80,NE,51,0.0,3.0,41,0.00,,,0.00,Wunderground v.1.15,2013-05-04 06:00:00,
2013-05-03 23:10:00,63.0,39.5,29.80,NE,51,0.0,3.0,42,0.00,,,0.00,Wunderground v.1.15,2013-05-04 06:10:00,
2013-05-03 23:20:00,62.6,38.6,29.79,NE,51,0.0,3.0,41,0.00,,,0.00,Wunderground v.1.15,2013-05-04 06:20:00,
2013-05-03 23:30:00,62.2,37.6,29.79,NE,51,0.0,3.0,40,0.00,,,0.00,Wunderground v.1.15,2013-05-04 06:30:00,
2013-05-03 23:40:00,61.9,37.3,29.78,NE,51,0.0,3.0,40,0.00,,,0.00,Wunderground v.1.15,2013-05-04 06:40:00,
2013-05-03 23:50:00,61.4,37.5,29.78,NE,51,0.0,3.0,41,0.00,,,0.00,Wunderground v.1.15,2013-05-04 06:50:00,